Theta_e
336 336 348 356 355 355 355 354 354 353 353 352 351 351 351 349 349 348 347 344 343 343 342 343 346 346 347 348 347 345 346 350 349 348 349 349 347 346 346 344 342 338 342
328 339 349 356 356 355 355 356 356 354 354 352 347 347 347 347 347 346 344 344 343 343 344 347 348 349 348 348 349 344 346 348 346 347 347 346 347 347 346 344 342 338 341
326 332 342 356 356 355 355 356 357 354 354 350 349 346 347 347 348 346 344 345 346 346 345 349 349 348 347 348 345 342 344 345 345 346 345 339 340 347 346 343 341 340 340
321 328 345 357 356 355 355 354 354 354 354 354 351 348 348 348 348 346 344 345 347 349 347 347 348 347 346 347 346 346 344 343 345 345 339 340 343 347 346 342 340 340 339
317 323 341 356 355 354 354 354 354 353 354 353 353 351 349 349 349 349 347 347 350 349 349 348 346 344 345 346 347 346 345 345 345 341 336 336 336 341 342 339 339 338 338
312 316 333 348 353 354 353 353 352 353 353 353 353 353 350 349 351 350 350 350 350 351 349 347 345 343 343 345 346 344 341 340 343 334 333 338 334 341 341 339 339 338 338
309 312 317 337 346 351 352 352 352 353 352 352 353 352 351 349 348 351 351 351 350 350 348 346 344 343 342 343 345 343 336 339 333 332 332 333 333 340 339 339 339 338 338
306 308 313 321 333 336 345 350 351 351 352 351 351 352 352 352 351 351 351 351 351 349 349 347 345 343 343 342 344 342 337 334 332 330 329 329 335 340 339 339 339 338 338
304 305 307 310 316 323 331 341 347 350 351 351 351 350 350 350 351 351 351 351 350 350 350 348 346 344 343 343 343 343 337 332 326 328 330 328 335 340 341 340 339 338 337
302 303 304 306 307 309 313 328 333 341 345 349 348 345 345 344 346 348 348 348 351 350 348 349 347 345 344 344 343 341 336 332 321 326 327 327 337 340 341 340 339 338 338
302 301 303 303 304 305 309 317 320 326 335 341 341 340 340 342 342 343 342 342 346 349 348 348 348 346 343 341 341 340 336 323 319 320 325 332 338 341 341 341 340 339 338
298 301 304 304 304 304 308 306 309 316 325 334 341 340 339 340 341 342 338 339 344 346 346 347 347 345 340 333 333 337 332 325 317 317 320 333 338 342 342 342 341 340 339
300 303 305 305 305 304 304 306 305 308 313 323 335 337 339 340 338 338 338 338 338 336 340 343 342 341 336 332 330 330 330 326 319 316 321 331 338 342 343 343 342 341 340
301 302 304 304 304 305 305 304 304 305 309 312 319 334 339 339 337 336 337 337 336 337 337 338 339 338 336 333 330 328 328 326 322 318 318 328 335 341 343 344 343 342 341
300 301 302 303 303 305 304 304 304 304 305 307 311 319 332 335 338 339 337 336 336 336 338 338 338 338 336 333 331 330 328 327 324 322 319 323 329 336 341 344 344 344 342
300 301 302 303 303 303 303 303 304 304 305 307 308 312 318 327 332 335 337 337 336 336 337 338 337 337 336 335 332 330 329 328 326 325 323 321 327 331 337 341 344 344 344
300 301 301 303 304 302 302 302 303 304 307 305 307 309 312 318 325 330 333 336 336 335 335 337 337 337 335 335 333 331 330 328 327 326 325 323 323 327 332 338 343 345 346
300 300 301 304 303 302 301 302 303 304 305 305 305 306 308 311 316 322 324 330 336 336 336 336 335 334 334 333 331 332 331 329 327 326 325 325 323 324 327 334 339 343 345
300 300 300 301 301 301 302 303 303 304 304 305 305 305 307 309 313 317 321 324 330 335 335 334 333 332 331 331 331 331 330 328 327 327 324 323 323 323 324 327 331 334 338
299 299 299 301 301 301 302 302 303 303 303 304 304 305 307 308 311 314 317 320 325 329 330 331 332 333 331 331 330 330 330 327 327 325 324 324 323 323 323 323 324 327 330
298 299 299 299 300 301 301 300 300 300 303 303 304 306 307 307 310 313 316 319 323 326 327 329 329 330 329 330 327 326 326 326 325 325 325 323 322 321 321 323 322 323 324
297 298 299 299 303 304 305 302 302 302 303 304 306 307 307 308 309 311 315 318 321 323 325 326 327 327 328 330 324 324 320 323 323 324 324 324 323 322 319 320 321 321 321
296 296 298 300 303 306 309 306 305 303 303 303 305 306 309 311 313 314 315 317 319 322 322 322 323 323 322 325 328 324 317 316 320 322 322 323 323 323 322 320 319 320 320
296 297 297 300 303 306 308 309 306 304 303 305 305 305 307 309 311 315 317 318 320 321 321 320 322 321 320 319 323 328 328 325 317 316 319 322 323 323 323 322 322 319 319
296 295 296 298 302 303 305 305 306 306 306 304 303 304 305 307 310 313 314 314 315 316 317 317 317 318 320 320 319 320 321 323 324 320 316 317 320 324 325 325 326 325 324
294 294 295 297 299 299 301 302 302 302 303 303 303 304 306 308 309 311 312 312 312 313 313 315 316 317 318 320 320 319 319 318 318 319 316 317 318 320 323 326 326 325 324
Wind_Speed
4 10 13 6 8 11 11 10 9 8 8 8 8 8 8 8 8 8 7 7 7 7 7 7 5 5 6 8 11 10 10 11 10 9 8 10 11 12 12 12 10 6 11
8 9 12 7 9 9 10 9 9 8 7 8 7 8 8 8 7 7 7 7 7 7 7 6 7 8 7 8 11 9 9 11 9 8 8 9 8 11 11 11 10 7 10
7 8 8 7 7 8 8 8 9 9 8 7 7 7 8 7 7 6 7 7 7 8 7 6 9 9 8 9 10 9 9 9 8 7 7 3 2 10 11 10 9 9 9
7 7 8 7 8 8 8 8 8 8 8 8 8 8 8 8 7 7 6 6 5 5 9 8 7 7 7 8 9 9 9 8 7 7 4 3 3 9 9 8 8 8 8
8 9 11 2 4 5 6 7 8 8 8 7 8 8 9 8 7 7 7 6 4 4 7 8 7 6 6 7 8 8 7 8 7 5 3 2 1 4 7 7 6 7 7
8 8 12 15 5 3 4 6 8 9 9 10 9 9 10 9 9 8 7 5 4 8 9 7 7 6 6 8 8 7 5 6 7 5 3 3 3 5 6 6 7 6 6
7 7 8 16 15 7 4 5 7 8 9 9 10 11 11 10 9 8 7 7 6 9 8 8 7 7 7 7 8 6 3 4 5 5 4 3 3 7 7 7 7 7 6
7 7 7 11 13 13 11 7 6 7 8 9 9 10 10 10 9 8 6 8 8 11 11 10 9 9 9 9 8 6 4 4 4 4 4 3 6 8 8 7 7 7 6
7 7 7 7 10 12 12 11 8 7 7 8 9 9 8 8 9 9 9 8 10 11 12 11 10 10 10 9 9 6 6 4 4 3 3 3 8 10 9 8 8 7 7
7 8 8 8 7 7 7 10 12 11 11 8 8 8 7 8 7 9 9 9 10 11 12 12 12 12 11 10 8 7 8 7 4 5 4 4 9 11 10 9 9 8 7
7 8 8 9 8 8 7 6 9 9 10 8 8 8 7 4 5 7 6 8 10 11 12 13 13 12 11 10 10 9 8 3 5 4 3 10 12 13 12 11 11 10 9
9 9 8 9 10 8 7 7 6 6 5 5 4 5 4 5 5 6 7 10 11 11 12 14 14 13 9 4 4 8 3 5 4 4 4 13 14 15 14 13 13 12 12
5 5 9 9 8 8 7 5 3 3 4 4 4 4 4 4 4 4 3 4 4 7 4 8 8 6 6 5 4 4 5 5 4 4 6 13 16 17 16 15 15 14 13
7 6 8 8 8 7 5 4 5 4 4 4 5 6 3 3 5 5 4 4 4 4 6 6 5 6 7 7 7 6 6 5 4 3 6 12 14 18 18 17 16 16 15
6 7 7 7 7 6 7 5 5 5 4 5 5 6 5 5 6 5 6 5 5 5 6 7 7 8 8 8 8 9 8 8 7 4 4 12 14 17 19 20 18 18 18
7 7 6 7 6 5 6 6 6 4 5 4 4 5 6 5 6 6 6 7 7 6 7 8 9 9 9 9 9 10 10 8 8 8 6 6 15 17 19 22 21 19 19
6 8 8 9 7 7 7 6 6 5 7 5 5 6 6 6 6 7 7 6 6 6 8 7 9 9 9 9 12 9 9 10 9 9 8 7 8 16 17 22 22 20 19
7 8 8 8 10 8 6 6 6 6 5 6 5 5 7 7 7 7 5 7 6 6 6 8 9 9 10 10 11 10 9 10 12 12 9 8 7 7 11 20 21 21 20
7 8 10 9 9 8 8 7 6 7 6 6 6 5 7 8 7 6 5 5 7 6 6 7 9 9 9 9 10 11 8 9 11 9 11 11 11 9 8 12 19 20 20
7 7 8 9 9 8 7 6 6 5 5 5 5 5 8 6 7 7 5 6 6 7 7 7 10 9 9 9 9 10 9 8 9 10 12 10 12 13 12 11 8 11 19
7 9 10 11 12 8 5 4 3 4 6 5 5 8 8 7 7 7 5 6 6 8 8 8 8 9 8 8 6 7 8 8 10 9 9 10 11 12 12 11 9 7 8
8 8 11 11 12 10 7 5 4 4 5 7 6 8 8 7 7 6 6 6 7 6 8 7 8 7 9 8 7 5 7 6 10 12 11 11 15 11 11 13 13 12 10
7 8 10 12 12 11 11 5 4 4 4 3 3 4 4 5 6 6 6 5 6 6 7 5 5 8 7 8 10 7 4 7 2 5 14 12 14 9 9 10 12 12 11
6 7 8 10 11 10 12 8 7 4 6 4 3 4 6 5 6 5 5 5 6 5 6 5 5 5 4 8 6 9 11 8 5 5 1 4 6 7 7 8 7 8 9
6 6 7 8 9 10 11 9 8 8 6 5 5 7 6 6 6 6 7 6 5 4 5 5 5 5 5 7 7 7 8 9 11 8 11 5 4 7 10 10 12 11 11
5 5 6 7 8 10 10 10 9 8 8 7 8 8 8 7 7 9 10 8 8 7 7 6 6 7 8 8 7 7 8 8 8 7 9 12 11 8 9 10 11 9 8
Wind_Direction
336 324 321 216 168 154 152 144 138 130 122 116 118 120 121 125 128 131 134 135 135 135 129 140 131 130 100 118 119 121 121 93 82 78 91 105 110 109 99 90 79 74 88
290 313 308 211 173 168 162 154 147 141 140 128 124 129 131 133 136 140 144 146 147 142 141 139 146 116 109 104 114 116 120 113 101 76 105 87 110 118 106 100 97 94 94
327 318 298 208 172 167 173 168 157 157 158 149 144 145 146 146 146 149 154 160 163 164 147 119 118 116 112 114 113 118 123 121 109 98 91 93 129 126 113 100 101 101 102
328 340 342 203 164 170 177 185 172 174 176 165 162 163 161 159 160 160 172 183 193 192 152 143 120 119 121 128 131 127 121 131 124 116 103 99 111 126 109 108 110 107 106
3 3 10 68 151 176 187 191 189 191 188 181 176 179 179 176 184 177 184 191 213 200 162 149 149 146 145 147 144 138 130 139 141 125 115 119 92 126 127 127 120 120 121
11 2 22 23 6 178 202 209 209 208 200 193 195 195 196 196 197 199 197 195 188 163 160 166 168 164 164 168 158 154 147 169 163 152 152 168 133 161 152 146 143 143 135
3 8 21 28 29 3 242 230 229 222 227 216 205 205 207 209 209 215 217 202 185 181 178 183 184 183 179 186 181 170 147 170 164 169 175 173 196 179 172 165 163 159 152
13 3 14 12 21 26 21 320 265 258 247 240 229 223 223 223 215 216 213 209 198 198 198 198 199 198 196 196 199 184 165 162 166 177 191 206 227 199 189 183 179 173 168
8 15 9 6 11 4 10 1 334 280 264 254 246 244 242 234 223 222 217 218 216 211 207 208 209 210 212 211 210 193 190 173 176 197 204 222 240 216 203 197 193 191 186
6 8 3 360 1 1 353 360 7 352 325 282 262 251 243 243 239 232 224 227 221 218 219 211 210 216 218 221 221 211 203 198 190 206 217 223 235 230 215 210 207 206 200
6 12 2 357 353 350 338 353 352 345 342 319 292 250 245 235 234 233 228 227 232 225 221 219 215 218 216 218 221 219 215 209 203 215 215 225 227 230 222 218 218 215 210
352 351 5 357 351 344 340 343 338 333 330 320 303 287 267 232 222 221 220 227 231 231 228 224 221 217 217 218 230 229 205 210 217 223 225 228 228 230 230 223 224 223 221
329 350 354 353 348 353 348 335 332 334 323 313 302 285 274 271 249 235 231 225 222 228 225 227 224 214 202 203 222 220 219 210 210 220 229 230 232 232 234 227 226 228 228
349 337 338 345 344 341 338 337 323 331 327 319 318 308 271 260 248 247 233 227 225 215 216 213 215 213 209 211 212 217 219 219 216 220 228 235 234 233 234 237 228 231 233
346 330 329 328 327 328 333 321 321 318 315 301 302 302 297 281 272 254 242 228 223 205 221 228 225 222 222 219 218 220 221 222 221 223 225 232 234 236 236 239 235 228 231
331 326 313 315 306 314 315 310 304 298 295 297 290 279 286 280 280 277 264 249 236 222 219 224 229 232 234 224 225 220 227 225 221 223 226 232 235 236 236 236 240 238 232
307 301 311 318 316 310 301 294 301 290 300 286 280 280 273 269 262 268 272 263 251 237 234 228 230 228 233 233 235 225 224 226 227 226 225 229 232 232 236 236 235 238 237
304 314 308 304 306 297 290 288 289 288 284 282 269 267 268 263 258 261 262 271 267 242 229 236 235 234 234 236 238 236 229 228 226 228 224 225 226 233 232 233 231 233 236
308 309 312 314 306 297 302 293 285 280 276 275 274 262 262 256 244 238 247 257 267 249 242 247 240 234 237 235 243 242 235 236 233 228 227 225 224 220 223 230 227 229 232
314 314 313 319 311 306 299 296 289 276 271 263 264 267 265 258 245 237 234 242 254 257 256 242 257 227 229 232 237 243 241 233 239 234 232 230 231 223 222 223 218 226 228
325 326 328 320 316 317 311 309 298 288 294 281 265 262 264 254 248 239 232 228 237 250 253 246 247 259 231 215 242 241 240 236 233 233 240 234 230 225 221 216 216 220 223
318 321 328 320 323 320 311 291 258 282 284 277 283 279 272 265 257 249 232 232 234 246 248 250 259 259 258 223 217 231 254 231 230 228 224 229 230 225 219 221 222 215 216
322 327 327 320 321 322 330 289 275 274 274 286 294 290 298 294 276 253 248 242 241 241 248 241 240 253 263 264 259 227 218 244 264 193 230 228 232 223 232 232 225 223 218
321 321 316 315 327 339 344 340 313 296 301 295 295 289 304 319 317 316 301 280 257 251 242 233 236 245 253 267 276 255 249 272 254 251 255 233 229 233 237 244 237 236 227
323 319 316 317 330 346 351 359 357 353 336 329 329 337 348 350 4 12 6 347 335 318 303 284 269 250 245 259 254 266 267 270 262 261 272 238 211 217 218 225 236 235 224
321 328 332 335 334 350 348 359 357 355 354 2 1 3 1 3 9 9 358 354 343 338 331 314 288 265 256 253 249 251 254 256 268 253 257 255 252 243 232 228 228 217 215